Theta_e
325 324 325 327 327 327 328 330 329 328 328 327 331 332 331 329 327 325 326 324 329 329
329 329 328 329 331 330 330 330 334 331 324 322 327 330 330 328 327 325 328 330 331 325
329 331 331 329 327 325 322 320 329 327 325 322 321 325 328 325 326 328 330 331 325 324
324 325 325 321 323 324 321 320 319 320 323 321 323 322 320 324 327 327 326 325 323 321
318 319 319 320 321 323 324 323 325 328 329 328 328 328 327 326 329 326 323 323 323 321
312 313 315 315 314 316 318 319 319 320 321 322 322 322 322 323 324 323 323 321 320 318
305 306 307 310 312 312 312 310 311 313 315 316 315 315 313 312 310 310 311 311 312 312
304 305 305 307 307 308 308 310 310 311 311 311 311 311 309 308 307 306 307 310 311 311
304 304 303 303 303 304 304 305 305 305 307 306 310 303 302 304 303 303 302 301 302 304
303 302 301 301 301 301 301 301 301 302 303 302 302 298 298 301 299 298 297 298 299 301
302 301 301 300 299 299 298 298 299 299 300 299 302 299 297 298 296 296 296 297 297 297
301 300 298 297 296 296 296 296 296 298 297 297 297 297 296 296 294 295 295 296 297 298
298 296 294 293 293 293 293 293 295 294 295 297 295 295 295 295 293 293 294 294 295 297
293 293 292 290 290 290 290 290 290 291 292 292 294 294 295 295 295 295 295 295 295 295
Wind_Speed
6 4 4 5 6 6 7 7 5 5 5 1 5 5 4 8 6 9 11 21 15 12
3 5 6 7 6 6 3 3 6 11 9 6 11 12 12 10 13 7 4 9 11 6
6 7 5 3 3 4 4 3 5 8 9 7 4 2 5 7 13 11 8 11 9 6
7 6 5 4 3 4 4 5 6 6 6 6 5 4 4 10 15 15 13 9 7 7
7 7 7 7 6 3 4 3 4 3 6 6 5 4 13 17 15 11 6 7 5 7
7 7 6 6 5 4 4 5 6 5 6 5 4 1 3 2 4 4 5 3 4 4
6 6 6 6 7 7 6 7 6 6 5 5 4 5 5 6 6 7 6 5 5 5
7 7 8 8 8 7 7 8 8 9 8 6 5 5 5 1 1 2 3 4 4 5
7 7 7 8 8 8 8 8 7 7 7 7 6 13 12 10 7 5 4 4 4 5
6 7 6 5 6 6 5 5 6 6 6 6 6 6 7 8 4 5 5 6 6 7
6 6 6 8 9 8 6 6 4 5 5 4 3 4 1 3 4 5 6 6 6 7
6 7 8 7 6 5 5 5 5 5 6 5 5 7 8 3 3 5 6 6 5 6
6 6 6 6 6 3 3 4 5 7 6 8 6 7 8 5 3 5 5 6 6 10
7 5 5 4 3 5 5 5 5 6 6 7 7 7 6 5 6 6 7 6 7 6
Wind_Direction
186 183 199 197 207 214 213 219 205 128 118 177 184 148 113 288 256 252 182 212 205 219
197 208 226 236 218 225 218 196 181 156 155 177 175 179 185 221 262 240 258 270 267 245
65 48 26 63 75 95 107 76 109 148 181 196 264 279 254 202 248 247 235 244 227 216
75 80 93 107 135 160 146 177 191 202 219 211 217 144 311 259 244 242 228 217 221 213
65 68 69 65 64 65 114 147 140 181 182 193 239 211 234 242 229 220 222 229 230 239
50 54 58 67 76 73 68 55 41 39 53 36 41 30 303 343 339 314 301 321 292 296
48 51 41 36 34 30 38 48 44 34 34 37 35 62 48 23 4 352 350 341 333 322
21 26 35 39 33 29 32 24 18 18 13 12 6 15 9 27 234 257 273 282 285 289
50 42 35 27 25 30 23 18 18 11 3 356 350 6 36 28 19 17 4 327 289 276
44 44 34 38 39 27 11 1 358 351 353 348 354 82 47 29 1 334 313 300 300 303
39 41 33 34 26 24 16 14 11 6 3 348 313 321 290 295 260 275 273 271 270 266
34 45 52 38 20 14 10 356 346 330 324 314 292 288 290 301 279 262 261 254 270 286
45 58 49 31 12 344 330 315 318 312 299 295 299 289 301 337 319 310 301 287 264 265
24 25 40 6 344 334 323 313 307 305 302 297 288 296 337 0 335 313 309 302 303 295